TOURFACTS.DK  
Stats and Facts from Tour de France.

Tour de France 2019 starts in 348 days
  Riders   Stages   Teams   Summits   Yearly  


 
Search by year

After 2018 - Stage 14:
 15000 starters.
  5163 different riders.
  639 teams.
  2246 stages.
  456 restdays.
  441957.60 km.
  5678 abandonnees.


Top 3
GC
Christopher Froome86:20:55
Rigoberto Urán86:21:49
Romain Bardet86:23:15
Climb
Warren Barguil169 pt.
Primoz Roglic80 pt.
Thomas De Gendt64 pt.
Sprint
Michael Matthews359 pt.
André Greipel234 pt.
Edvald Boasson Hagen220 pt.
Youth
Simon Yates86:27:09
Louis Meintjes86:29:15
Emanuel Buchmann86:54:16
Facts from Tour de France 1931
  |   Stages.  |   Stage winners.  |   Days in yellow  |   Average speed.  |   Route.  |   Teams.  |   All riders.  |   Rookies.  |  

  |   Withdrawls.  |   GC.  |   Polka  |   Green  |   White  |   Summits. (In tour)  |   Miscellaneous.  |  

Stage 1 on June 30th. 1931
  
Pick a stage:  1 2 3 4 5 6 7 8 9 10 11 12 13 14 15 16 17 18 19 20 21 22 23 24
From: Paris    To: CaenDist:208.00 km.

Average speed for all riders in stage:  32,795 km./hr.
    Place:Name:Team:Time:Km/h:
BELAlfred HamerlinckBELBelgium06:17:12  +  00:00:00=33,086 
FRACharles PelissierFRAFrance06:17:12  +  00:00:00=33,086 
ITARafaële Di PacoITAItaly06:17:12  +  00:00:00=33,086 
4 FRALéon Le CalvezFRAFrance06:17:12  +  00:00:00=33,086 
5 BELMaurice De WaeleBELBelgium06:17:12  +  00:00:00=33,086 
6 AUTMax BullaTouristes Routiers06:17:12  +  00:00:00=33,086 
7 BELGaston RebryBELBelgium06:17:12  +  00:00:00=33,086 
8 FRAAndré LeducqFRAFrance06:17:12  +  00:00:00=33,086 
9 BELRomain GijsselsBELBelgium06:17:12  +  00:00:00=33,086 
10 BELJef DemuysereBELBelgium06:17:12  +  00:00:00=33,086 
11 BELAlfons SchepersBELBelgium06:17:12  +  00:00:00=33,086 
12 ITAEugenio GestriITAItaly06:17:12  +  00:00:00=33,086 
13 ITAAntonio PesentiITAItaly06:17:12  +  00:00:00=33,086 
14 GEROskar ThierbachDEUGermany06:17:12  +  00:00:00=33,086 
15 GERErich MetzeDEUGermany06:17:12  +  00:00:00=33,086 
16 GERHermann BuseDEUGermany06:17:12  +  00:00:00=33,086 
17 GERHerbert SieronskiDEUGermany06:17:12  +  00:00:00=33,086 
18 BELJules GoedhuysTouristes Routiers06:17:12  +  00:00:00=33,086 
19 BELGerard LonckeTouristes Routiers06:17:12  +  00:00:00=33,086 
20 BELAuguste Van TrichtTouristes Routiers06:17:12  +  00:00:00=33,086 
21 BELJean NaertTouristes Routiers06:17:12  +  00:00:00=33,086 
22 ITAPierino FerioliTouristes Routiers06:17:12  +  00:00:00=33,086 
23 ESPSalvador CardonaTouristes Routiers06:17:12  +  00:00:00=33,086 
24 POLKarl OlböterTouristes Routiers06:17:12  +  00:00:00=33,086 
25 FRAJean BidotTouristes Routiers06:17:12  +  00:00:00=33,086 
26 FRAFrancois FavéTouristes Routiers06:17:12  +  00:00:00=33,086 
27 FRAAndré GodinatTouristes Routiers06:17:12  +  00:00:00=33,086 
28 FRAMarcel MazeyratTouristes Routiers06:17:12  +  00:00:00=33,086 
29 BELFrançois MoreelsTouristes Routiers06:17:12  +  00:00:00=33,086 
30 FRALouis PeglionFRAFrance06:17:12  +  00:00:00=33,086 
31 ITAGiuseppe PanceraTouristes Routiers06:17:12  +  00:00:00=33,086 
32 SUIRoger PipozCHEAustralia-Switzerland06:17:12  +  00:00:00=33,086 
33 FRAAntonin MagneFRAFrance06:17:12  +  00:00:00=33,086 
34 FRAJoseph MauclairFRAFrance06:17:48  +  00:00:36=33,033 
35 BELRobert Van GrootenbrueleTouristes Routiers06:17:48  +  00:00:36=33,033 
36 AUSHubert OppermanCHEAustralia-Switzerland06:17:48  +  00:00:36=33,033 
37 ITALuigi GiacobbeITAItaly06:18:15  +  00:01:03=32,994 
38 ITAFabio BattesiniITAItaly06:18:15  +  00:01:03=32,994 
39 ITAFrancesco CamussoITAItaly06:18:32  +  00:01:20=32,969 
40 ITAFelice GremoITAItaly06:18:32  +  00:01:20=32,969 
41 GERKarl AltenburgerDEUGermany06:18:32  +  00:01:20=32,969 
42 POLAlfred SiegelDEUGermany06:18:32  +  00:01:20=32,969 
43 FRALouis BajardTouristes Routiers06:18:32  +  00:01:20=32,969 
44 BELJulien VervaeckeBELBelgium06:18:32  +  00:01:20=32,969 
45 FRABenoit FaureFRAFrance06:18:48  +  00:01:36=32,946 
46 FRAAndré Van VierstTouristes Routiers06:18:59  +  00:01:47=32,930 
47 ITAPietro MoriTouristes Routiers06:18:59  +  00:01:47=32,930 
48 GERKurt NitzschkeTouristes Routiers06:18:59  +  00:01:47=32,930 
49 ITAAmulio ViarengoTouristes Routiers06:18:59  +  00:01:47=32,930 
50 GERLudwig GeyerDEUGermany06:19:21  +  00:02:09=32,898 
51 FRARobert BrugéreTouristes Routiers06:19:21  +  00:02:09=32,898 
52 FRAFrancois HenriTouristes Routiers06:19:21  +  00:02:09=32,898 
53 ITAAristide CavalliniTouristes Routiers06:19:21  +  00:02:09=32,898 
54 FRAMarius GuiramandTouristes Routiers06:19:39  +  00:02:27=32,872 
55 FRAJean FontenayTouristes Routiers06:19:39  +  00:02:27=32,872 
56 AUSFrankie ThomasCHEAustralia-Switzerland06:19:54  +  00:02:42=32,851 
57 ITAAlessandro CatalaniTouristes Routiers06:20:11  +  00:02:59=32,826 
58 FRAJean MaréchalFRAFrance06:20:22  +  00:03:10=32,810 
59 FRARené BernardTouristes Routiers06:20:22  +  00:03:10=32,810 
60 ITAMichele OrecchiaITAItaly06:20:22  +  00:03:10=32,810 
61 SUIGeorges AntenenCHEAustralia-Switzerland06:20:22  +  00:03:10=32,810 
62 FRAJulien PerrainTouristes Routiers06:20:45  +  00:03:33=32,777 
63 BELGeorges LaloupTouristes Routiers06:20:45  +  00:03:33=32,777 
64 SUIAlbert BüchiCHEAustralia-Switzerland06:20:45  +  00:03:33=32,777 
65 GERKurt StöpelDEUGermany06:20:54  +  00:03:42=32,765 
66 GERErich UssatTouristes Routiers06:22:28  +  00:05:16=32,630 
67 FRAGeorges BertonTouristes Routiers06:22:57  +  00:05:45=32,589 
68 FRALazare VenotTouristes Routiers06:23:55  +  00:06:43=32,507 
69 AUSOserick NicholsonCHEAustralia-Switzerland06:23:55  +  00:06:43=32,507 
70 FRAJean RiondetTouristes Routiers06:24:09  +  00:06:57=32,487 
71 FRAAdrien ButtafocchiTouristes Routiers06:25:46  +  00:08:34=32,351 
72 FRAFernand FayolleTouristes Routiers06:26:23  +  00:09:11=32,300 
73 BELBernard Van RysselbergheBELBelgium06:29:39  +  00:12:27=32,029 
74 FRAFernand RobacheTouristes Routiers06:29:39  +  00:12:27=32,029 
75 SUIJules GillardCHEAustralia-Switzerland06:29:39  +  00:12:27=32,029 
76 BELAchille ViaeneTouristes Routiers06:29:39  +  00:12:27=32,029 
77 FRAFrancis BouilletTouristes Routiers06:29:39  +  00:12:27=32,029 
78 ESPFrancisco CepedaESPSpain06:30:32  +  00:13:20=31,956 
79 AUSRichard LambCHEAustralia-Switzerland06:34:50  +  00:17:38=31,608 
80 FRALucien LavalTouristes Routiers06:48:05  +  00:30:53=30,582 
81 FRAGabriel HarguesTouristes Routiers06:48:05  +  00:30:53=30,582 


Todays birthdays.

1877  Antoine Perrichon
1878  Auguste Berthault
1911  Théo Herckenrath
1924  Carlo Lafranchi
1931  Armand Di Caro
1937  Jean-Claude Lebaube
1951  Giovanni Battaglin
1961  Pascal Jules
1962  Jean-Claude Leclercq
1976  Janek Tombak
1978  Francisco Pérez
1983  Dries Devenyns




Visits: